Архив погоды в Донецке за Февраль, 2018 год

icon
Год:Все20022003200420052006200720082009201020112012201320142015201620172018
Месяц:ЯнварьФевральМартДекабрь
Дата Облачность Температура (д/н), °C Давление, мм Влажность, % Ветер, м/с
01.02.2018 Облачность ясно +1 / -5 743 63 З, 3
02.02.2018 Облачность пасмурно +2 / +2 738 100 Ю, 3
03.02.2018 Облачность пасмурно +4 / +4 737 100 Ю-З, 4
04.02.2018 Облачность дождь +6 / -2 729 100 Ю-З, 5
05.02.2018 Облачность пасмурно -2 / -6 740 78 З, 4
06.02.2018 Облачность пасмурно +1 / -3 746 62 Ю, 3
07.02.2018 Облачность ясно +3 / -3 749 64 Ю-В, 2
08.02.2018 Облачность пасмурно -1 / +0 742 100 В, 7
09.02.2018 Облачность дождь +1 / +0 736 100 В, 4
10.02.2018 Облачность пасмурно +3 / +0 739 94 Ю, 1
11.02.2018 Облачность пасмурно +0 / -2 734 100 В, 6
12.02.2018 Облачность снег -4 / -2 731 94 В, 7
13.02.2018 Облачность снег -2 / -2 735 94 Ю-В, 2
14.02.2018 Облачность пасмурно -3 / -4 742 90 С-В, 1
15.02.2018 Облачность пасмурно -1 / -2 745 97 В, 5
16.02.2018 Облачность пасмурно -2 / -2 746 100 В, 4
17.02.2018 Облачность пасмурно -1 / -3 742 100 С-В, 2
18.02.2018 Облачность пасмурно +0 / -2 741 86 С, 2
19.02.2018 Облачность ясно +3 / -5 741 65 С, 3
20.02.2018 Облачность ясно -1 / -7 743 59 С-В, 2
21.02.2018 Облачность пасмурно -1 / -7 742 69 С-В, 3
22.02.2018 Облачность пасмурно -2 / -7 741 70 С-В, 3
23.02.2018 Облачность снег -6 / -10 740 92 В, 6
24.02.2018 Облачность снег -7 / -10 737 82 С-В, 4
25.02.2018 Облачность ясно -4 / -10 741 46 С, 3
26.02.2018 Облачность ясно -5 / -11 745 40 С, 3
27.02.2018 Облачность снег -5 / -4 739 69 В, 8
28.02.2018 Облачность пасмурно +0 / -6 746 81 В, 2
icon
Облачность:ясно ясно
Темп. днем:-5..-3 °C
Темп. ночью:-11..-9 °C
Давление:741 мм
Влажность:46 %
Ветер:С, 3 м/с
icon
USDusd26,99(+0,00000)
RUBrub0,48(+0,00000)
EUReur33,19(+0,00000)
icon
Вс. 25 Февраль 2018
icon
Логин:
Код: ---
 
Реклама
icon